DELTA 1 R/B, 2758

Orbit data source: Space-Track

DELTA 1 R/B, 2758 is space debris in SSO originally from a launch on Thu, 20 Apr 1967 UTC launched from the Air Force Western Test Range (AFWTR). Debris objects in space refer to the collection of defunct objects orbiting the Earth. Examples of debris include non-operational satellites, rocket bodies, and fragments generated from explosions, collisions, or faulty payload assembly.

Loading next visibility...
Identifier
2758, 1967-036B
Orbit
SSO
Country
Flag of USUS
Related business
Manufacturer
ABL
Mission
Spacecraft
Bus & Motor
ALTAIR, Unknown motor
Mass
33 kg wet, 33 kg dry
Launch date (UTC)
1967-04-20 (59 years ago)
Launch vehicle
Unknown
Launch site
Air Force Western Test Range (AFWTR)
Object type
Payload
Rocket body
Debris
Shape & HBR
Unknown
Radar Cross Section
Medium (>0.1 m² and <1 m²)

Expand to show TLE details & history
Last TLE update: 13 hours ago

TLE from 13 hours ago
0 DELTA 1 R/B
1  2758U 67036B   25307.59092280 -.00000017  00000-0  15646-3 0  9990
2  2758 101.8583 204.0730 0041238  54.4755 306.0161 12.68923641710674
Epoch: 2025-11-03T14:10Z
TLE epoch observation values (Epoch: 2025-11-03T14:10:55.729Z)
Latitude
-0.00005°
Longitude
-51.7493°
Altitude
1,370.178 km
Speed
7.182 km/s
True Right ascension
13h 36m 17s
True Declination
0° 00' 00"
Sunlit
Object was in daylight at epoch
Visualization orbit readout
Latitude
Unknown
Longitude
Unknown
Altitude
Unknown
Speed
Unknown
Apparent Right ascension
Unknown
Apparent Declination
Unknown
Sunlit
N/A
Visualization observer readout
Local Sidereal Time
22:42:29
Azimuth
Unknown
Elevation
Unknown
Doppler factor
Unknown
Orbital elements
Apogee altitude
1,415.865 km
Perigee altitude
1,351.847 km
Semi-major axis
7,761.993 km
Eccentricity
0.00412
Inclination
101.8583°
RAAN
204.073°
Arg. of periapsis
54.4755°
True anomaly
305.63272°
Mean anomaly
306.0161°
Eccentric anomaly
305.82452°
Mean motion
3.17383 °/min
Orbital period
113.43 mins
BSTAR
0.00015646
Loading maneuver chart data...
Computing Atmospheric mass density...
Loading historical data...
Loading historical data...
Loading historical data...
Loading historical data...
Loading historical data...
Loading historical data...
Loading historical data...
Other satellites on launch #36 in the year 1967 (1967-04-20 UTC)

Documentation

Showing up to 5 results
|